Temp
85 85 85 85 84 84 85 85 86 86 87 86 86 85 84 84 84 83 82 83 82 81 82 80 78 78 79 79 80 79 77 77 72 75 78 78 77 76 77 79 76 75 74
87 85 85 85 85 85 84 85 86 86 86 86 86 85 85 84 84 83 82 84 82 81 81 81 79 81 77 78 79 77 77 78 75 73 76 75 75 77 77 76 79 85 79
88 88 87 86 85 85 84 85 86 85 86 87 87 85 84 85 83 84 83 83 83 83 82 80 80 79 77 78 77 78 77 78 77 74 73 76 76 77 75 76 76 76 80
93 90 86 86 86 86 86 85 85 86 84 86 86 85 86 85 85 85 84 83 83 84 83 82 81 80 78 77 77 75 77 76 75 74 73 73 75 75 76 74 72 74 74
92 90 88 87 87 86 85 85 85 85 86 85 85 86 85 86 88 84 84 83 83 82 83 84 83 81 77 77 79 77 75 75 75 74 72 73 73 73 74 74 72 72 72
91 91 89 87 86 86 85 85 85 85 85 85 84 85 85 88 79 75 82 84 83 82 81 83 83 78 76 73 72 74 76 74 73 75 75 74 72 74 74 73 72 69 67
91 91 90 87 86 85 86 85 84 84 85 84 84 85 84 85 74 72 74 86 84 83 82 82 84 87 78 79 71 72 70 71 74 75 73 73 73 75 75 73 73 72 70
90 89 90 88 86 86 85 85 84 85 84 84 84 84 84 85 72 68 71 83 84 84 83 83 82 83 82 80 78 76 76 75 73 78 77 76 76 78 77 75 73 73 72
90 88 89 89 87 86 85 84 85 85 84 85 85 84 83 84 68 66 68 82 83 83 84 84 83 82 77 69 78 75 75 76 71 68 70 70 68 68 74 74 71 70 68
90 89 90 88 87 86 86 84 85 85 85 86 85 85 80 84 70 63 67 84 82 84 83 83 72 81 70 64 78 77 74 75 76 75 72 67 67 69 67 74 74 70 69
92 92 89 88 87 86 86 85 85 85 85 84 84 85 85 83 83 62 60 82 84 84 84 84 85 66 64 60 68 79 77 77 73 76 73 72 72 71 68 71 74 72 70
92 89 88 88 89 90 85 85 85 84 82 82 82 83 86 85 70 66 59 62 76 83 83 86 85 65 60 58 63 71 62 68 77 75 71 70 69 69 72 70 71 72 72
92 88 88 88 87 86 85 84 84 83 83 82 83 83 84 86 87 64 59 59 61 74 85 80 61 58 58 59 60 64 61 74 74 73 72 69 70 71 71 70 71 71 69
91 88 88 87 85 86 88 87 86 85 84 83 84 84 85 86 87 88 79 68 62 67 72 77 75 72 64 68 66 64 73 74 74 70 70 70 71 70 69 71 69 68 65
89 88 87 88 85 86 86 87 86 86 84 87 86 86 85 85 72 57 61 75 78 73 75 80 78 76 77 70 72 70 72 74 72 72 70 69 68 67 66 68 69 67 65
86 87 88 89 88 87 86 85 69 63 56 49 50 63 74 55 48 46 47 50 51 54 70 76 74 74 71 72 71 69 70 71 72 70 69 68 66 64 62 62 65 68 65
84 86 86 83 88 86 86 86 83 64 52 51 48 47 47 45 45 44 43 44 46 52 76 73 73 74 72 71 71 70 69 70 71 69 67 67 65 64 62 62 67 68 67
80 65 86 86 86 84 83 83 85 82 81 78 61 56 50 46 43 42 44 51 63 59 70 72 72 72 71 70 70 69 70 69 68 67 66 65 65 63 63 66 68 68 66
83 82 84 82 80 78 83 84 83 82 79 77 76 66 63 56 46 44 47 59 59 60 63 64 65 66 68 70 70 69 69 68 68 67 66 65 65 64 63 66 69 63 64
76 67 73 81 81 82 83 83 81 80 79 75 75 71 71 69 70 70 69 67 63 62 65 65 66 66 66 66 68 68 68 68 67 66 65 65 65 66 69 70 70 67 67
78 77 72 78 77 76 76 75 75 75 74 72 72 66 48 66 71 71 71 71 70 68 67 67 65 64 64 65 65 65 65 65 65 65 65 65 66 70 72 70 70 69 67
77 75 75 74 73 72 70 69 67 66 66 66 66 64 52 67 68 68 70 72 73 73 71 68 66 66 66 65 65 65 65 64 64 64 64 65 67 69 70 70 70 70 68
76 73 72 71 70 66 69 71 68 64 61 59 59 61 61 62 62 64 67 70 72 72 72 70 69 69 69 69 69 67 65 65 64 64 64 65 67 68 68 68 69 68 68
72 72 70 69 68 69 68 67 66 59 62 59 57 56 56 56 57 58 59 61 64 67 70 70 68 69 70 67 68 67 65 65 65 65 66 66 67 64 68 67 68 68 67
75 73 72 70 69 68 67 66 65 62 63 61 59 58 55 55 55 55 57 59 59 62 64 66 68 68 65 65 65 65 58 51 67 60 70 70 69 67 68 69 68 68 68
72 72 71 71 69 68 66 64 63 61 60 59 57 56 54 53 53 52 53 54 56 56 58 59 59 68 70 70 68 54 40 43 58 51 68 70 68 69 69 69 70 67 67
MSLP
1006.31 1006.89 1007.64 1008.51 1009.36 1009.78 1010.01 1010.39 1010.69 1011.11 1011.35 1011.54 1012.18 1012.75 1013.21 1013.62 1014.18 1014.62 1014.91 1015.11 1015.42 1015.84 1016.04 1016.50 1016.90 1016.93 1016.95 1016.94 1017.17 1017.50 1017.89 1018.09 1018.30 1018.10 1017.98 1018.21 1018.54 1019.00 1019.34 1019.39 1019.67 1020.01 1020.28
1005.26 1006.16 1006.96 1007.60 1008.12 1008.69 1009.26 1009.52 1009.96 1010.38 1010.77 1011.15 1011.49 1011.93 1012.32 1012.80 1013.32 1013.84 1014.20 1014.45 1014.61 1014.93 1015.32 1015.66 1016.11 1016.59 1016.86 1016.91 1016.97 1017.24 1017.59 1017.66 1017.99 1018.20 1018.26 1018.49 1018.49 1018.53 1018.74 1019.25 1019.44 1019.38 1019.49
1004.57 1005.50 1006.17 1006.67 1007.09 1007.51 1008.19 1008.77 1009.16 1009.75 1010.11 1010.42 1010.64 1011.01 1011.63 1012.10 1012.54 1013.04 1013.61 1013.99 1014.19 1014.28 1014.69 1015.25 1015.59 1016.00 1016.47 1016.69 1016.78 1016.78 1016.93 1017.22 1017.47 1017.82 1018.03 1017.96 1018.19 1018.34 1018.67 1018.78 1019.01 1019.10 1018.94
1003.18 1004.21 1005.00 1005.47 1006.13 1006.82 1007.38 1007.90 1008.45 1008.80 1009.15 1009.30 1009.74 1010.21 1010.60 1011.04 1011.48 1011.97 1012.53 1013.01 1013.33 1013.51 1013.84 1014.45 1014.89 1015.23 1015.76 1016.11 1016.28 1016.34 1016.36 1016.74 1017.11 1017.51 1017.75 1017.77 1017.68 1017.74 1018.08 1018.38 1018.58 1018.64 1018.71
1001.54 1002.59 1003.19 1004.21 1004.93 1005.73 1006.33 1006.88 1007.51 1007.87 1007.91 1008.44 1008.89 1009.18 1009.66 1010.05 1010.38 1010.89 1011.39 1011.83 1012.27 1012.64 1012.89 1013.19 1013.62 1014.02 1014.27 1014.62 1015.01 1015.32 1015.86 1016.33 1016.53 1016.89 1017.20 1017.27 1017.23 1017.21 1017.46 1017.57 1017.83 1018.08 1018.19
1000.06 1000.70 1001.70 1002.75 1003.71 1004.47 1005.19 1005.70 1006.16 1006.52 1007.09 1007.59 1007.85 1008.29 1008.54 1008.77 1008.99 1009.51 1010.12 1010.60 1011.09 1011.64 1011.95 1012.24 1012.51 1012.79 1012.97 1013.38 1014.01 1014.64 1014.85 1015.33 1015.63 1015.73 1016.10 1016.37 1016.29 1016.43 1016.76 1017.16 1017.46 1017.93 1018.04
998.84 999.61 1000.41 1001.40 1002.26 1003.02 1003.82 1004.49 1004.89 1005.49 1006.17 1006.46 1006.95 1007.29 1007.39 1007.55 1007.77 1008.26 1008.86 1009.45 1009.92 1010.20 1010.65 1010.98 1011.20 1011.24 1011.82 1012.50 1013.04 1013.47 1013.84 1014.13 1014.17 1014.49 1014.71 1014.79 1015.07 1015.24 1015.72 1016.23 1016.72 1016.95 1017.30
998.12 998.79 999.47 1000.25 1001.06 1001.94 1002.72 1003.25 1003.99 1004.52 1004.82 1005.39 1005.81 1006.14 1006.54 1006.42 1006.78 1007.35 1007.97 1008.56 1008.78 1008.85 1009.13 1009.41 1009.62 1009.93 1010.42 1011.13 1011.87 1012.49 1012.60 1013.02 1013.35 1013.52 1013.72 1013.97 1014.29 1014.58 1014.79 1015.15 1015.87 1016.50 1016.51
997.50 998.09 998.67 999.34 1000.07 1000.82 1001.39 1002.11 1002.92 1003.61 1004.04 1004.24 1004.65 1005.17 1005.34 1005.38 1005.99 1006.67 1007.60 1007.91 1007.77 1007.55 1007.62 1007.89 1008.34 1008.88 1009.22 1009.97 1010.59 1010.79 1011.31 1011.79 1011.91 1012.51 1012.86 1013.25 1013.73 1014.20 1014.36 1014.85 1015.52 1015.46 1015.83
996.57 997.14 997.97 998.64 999.17 999.66 1000.36 1001.22 1002.02 1002.64 1003.10 1003.67 1003.74 1003.88 1004.20 1004.56 1005.19 1005.86 1006.72 1007.12 1006.91 1006.47 1006.90 1006.78 1006.94 1007.30 1008.11 1008.75 1009.37 1010.04 1010.61 1010.65 1011.60 1012.07 1012.62 1012.92 1013.30 1013.63 1014.24 1014.41 1014.98 1015.81 1015.91
995.78 996.57 997.26 997.79 998.32 998.99 999.83 1000.57 1001.32 1001.95 1002.51 1002.84 1003.06 1003.26 1003.34 1003.61 1004.13 1004.89 1005.85 1005.97 1005.31 1005.82 1005.90 1005.68 1006.06 1006.60 1007.00 1007.42 1008.03 1008.59 1008.53 1009.74 1010.39 1011.03 1011.58 1012.20 1012.50 1012.57 1013.21 1013.66 1014.01 1014.66 1015.14
995.08 995.79 996.55 997.21 997.88 998.52 999.29 1000.00 1000.67 1001.37 1001.89 1002.21 1002.48 1002.60 1002.56 1002.79 1003.20 1003.67 1004.52 1004.93 1004.98 1005.22 1004.73 1004.64 1004.94 1005.40 1006.24 1006.77 1007.51 1007.41 1008.01 1008.60 1008.98 1009.89 1010.72 1011.43 1012.00 1012.58 1012.45 1012.39 1013.32 1013.67 1014.01
995.07 995.49 996.17 996.82 997.54 998.16 998.73 999.46 1000.12 1000.71 1001.17 1001.51 1001.81 1001.96 1001.98 1002.23 1002.27 1002.71 1003.43 1003.98 1004.09 1004.37 1003.85 1003.91 1004.53 1004.36 1004.67 1005.67 1005.96 1006.50 1007.17 1007.68 1008.03 1008.68 1009.30 1009.66 1009.75 1010.55 1011.28 1012.07 1012.37 1013.54 1013.98
995.12 995.53 996.10 996.70 997.35 997.90 998.39 998.85 999.49 999.94 1000.53 1001.04 1001.26 1001.36 1001.58 1001.71 1001.78 1001.53 1001.82 1002.58 1002.68 1002.96 1002.90 1003.15 1003.39 1003.68 1004.39 1004.49 1004.70 1005.23 1005.25 1005.76 1005.90 1006.06 1007.11 1007.60 1008.75 1009.40 1009.31 1011.24 1011.80 1012.64 1014.18
995.35 995.69 996.10 996.62 997.20 997.67 998.09 998.30 998.86 999.18 999.73 1000.36 1000.81 1001.01 1001.24 1001.54 1002.69 1003.14 1002.78 1002.35 1002.06 1001.78 1001.59 1001.88 1002.35 1002.80 1003.04 1003.62 1003.72 1003.84 1003.53 1003.83 1003.85 1004.66 1005.13 1006.86 1007.28 1008.67 1009.06 1009.22 1011.71 1012.55 1013.00
995.72 995.89 996.06 996.33 996.73 997.33 997.58 998.10 998.30 999.27 1000.40 1001.09 1001.50 1001.64 1001.79 1002.80 1002.94 1002.72 1002.30 1001.76 1001.43 1001.14 1002.06 1001.65 1001.31 1001.30 1001.51 1001.63 1002.07 1002.69 1002.90 1002.82 1002.86 1003.59 1004.53 1005.31 1006.41 1007.07 1007.22 1009.43 1009.92 1011.73 1012.44
996.23 996.00 996.12 996.27 996.35 996.65 997.12 997.64 998.76 1000.77 1000.81 1000.97 1001.56 1002.10 1002.57 1003.00 1002.65 1002.46 1002.23 1001.98 1001.59 1001.69 1001.12 1000.92 1000.69 1000.57 1000.49 1000.62 1000.57 1000.66 1000.93 1001.42 1001.79 1002.22 1002.96 1003.95 1006.15 1007.06 1006.36 1007.33 1009.28 1010.61 1011.17
996.90 996.84 996.46 996.50 996.83 997.43 997.85 998.22 998.70 999.92 1000.55 1001.09 1001.11 1001.74 1001.95 1002.14 1002.83 1002.96 1002.46 1001.76 1002.01 1002.01 1001.46 1000.80 1000.42 1000.08 999.74 999.63 999.45 999.19 999.31 999.89 999.98 1000.14 1000.44 1001.84 1002.77 1004.70 1006.74 1006.97 1008.32 1009.38 1010.37
996.98 997.28 997.28 997.70 998.02 998.14 998.35 998.56 999.05 999.67 1000.43 1001.10 1001.60 1001.77 1002.17 1002.18 1002.57 1002.85 1002.62 1002.89 1002.65 1002.11 1001.79 1001.52 1001.23 1000.64 1000.06 999.27 998.49 997.86 997.51 997.65 997.76 997.60 998.15 998.74 1000.39 1002.51 1003.32 1005.33 1006.57 1007.94 1009.12
998.42 998.25 997.93 998.13 998.50 998.62 998.83 999.02 999.53 1000.11 1000.62 1001.26 1001.68 1002.49 1002.84 1002.66 1002.84 1002.71 1002.66 1002.64 1002.38 1001.81 1001.34 1001.12 1000.72 1000.27 999.75 999.14 998.24 997.77 996.72 995.50 994.10 994.60 994.91 997.57 999.84 1001.61 1003.07 1004.66 1005.29 1007.09 1007.97
999.19 999.23 999.03 999.33 999.79 1000.06 1000.16 1000.43 1000.69 1000.99 1001.43 1001.88 1002.32 1003.12 1003.20 1003.02 1002.49 1002.65 1002.25 1001.80 1001.42 1001.22 1001.14 1000.98 1000.51 999.98 999.64 998.78 998.71 997.57 996.64 996.46 995.97 996.36 996.99 998.07 999.06 1001.14 1002.73 1003.56 1004.74 1005.95 1007.01
999.90 1000.16 1000.25 1000.39 1000.71 1001.20 1001.75 1002.21 1002.56 1002.91 1003.16 1003.17 1003.40 1003.49 1003.39 1003.27 1003.18 1002.50 1002.08 1001.53 1000.82 1000.42 1000.44 1000.66 1000.31 999.98 999.48 999.54 999.37 998.07 997.58 997.66 997.88 998.68 999.21 999.99 1000.54 1001.71 1002.59 1002.96 1004.08 1005.09 1006.39
1000.50 1001.32 1001.35 1001.59 1001.89 1002.09 1002.38 1002.75 1003.31 1003.75 1004.12 1004.51 1004.73 1004.58 1004.54 1004.22 1003.67 1003.09 1002.65 1001.58 1001.11 1000.66 1000.24 1000.26 1000.02 999.60 999.41 999.43 999.64 999.20 998.48 998.38 998.83 999.75 1000.43 1000.92 1001.42 1002.08 1002.59 1003.41 1004.15 1004.99 1005.84
1002.00 1002.22 1002.37 1002.63 1002.64 1002.64 1003.10 1003.59 1003.91 1004.44 1004.85 1005.47 1005.58 1005.80 1005.58 1005.00 1004.25 1004.08 1003.61 1003.03 1002.31 1001.70 1000.70 1000.44 1000.20 999.70 999.65 999.99 999.74 999.71 999.64 999.65 999.93 1000.56 1000.99 1001.38 1001.88 1002.44 1003.20 1003.72 1004.49 1005.01 1005.61
1002.50 1003.11 1003.30 1003.26 1003.41 1003.53 1003.86 1004.30 1004.97 1005.55 1005.59 1006.07 1006.56 1006.77 1006.55 1005.86 1005.21 1004.82 1004.48 1003.94 1003.36 1002.80 1001.95 1001.32 1000.62 1000.48 1000.38 1000.40 1000.03 999.99 1000.45 1000.15 1000.64 1000.68 1001.16 1001.43 1001.92 1002.52 1003.14 1003.78 1004.35 1005.10 1005.46
1003.62 1004.15 1004.22 1004.10 1004.29 1004.63 1005.05 1005.51 1005.76 1006.40 1006.59 1007.09 1007.37 1007.68 1007.21 1006.68 1006.32 1006.13 1005.91 1005.14 1004.46 1004.19 1003.74 1003.01 1002.15 1000.91 1000.85 1000.89 1000.81 1000.67 1000.53 1000.64 1000.71 1000.47 1001.00 1001.31 1001.90 1002.61 1002.99 1003.67 1004.44 1004.77 1005.39
Wind_Speed
22 22 21 18 19 18 14 15 12 12 7 11 10 14 13 13 12 11 11 10 11 11 8 8 11 8 5 4 4 3 3 3 3 3 3 6 4 7 4 3 5 5 7
20 19 20 19 19 20 19 17 16 12 14 10 10 11 12 14 13 14 14 13 11 13 13 10 12 8 6 5 3 6 4 3 4 4 2 1 4 6 6 6 4 5 5
19 19 19 20 20 20 19 19 17 17 14 16 13 13 14 14 15 15 14 14 13 11 13 13 10 11 9 7 5 4 5 3 3 3 3 3 4 5 4 4 5 6 6
20 20 20 20 19 18 17 18 19 17 18 17 17 15 16 16 16 16 16 15 16 14 12 13 13 12 11 10 8 9 5 6 5 4 4 4 4 5 7 7 5 4 5
21 22 22 20 19 18 18 17 17 19 19 18 17 17 17 16 15 17 17 17 17 16 14 13 15 17 19 17 12 10 9 5 5 7 4 4 4 3 9 6 4 4 5
19 21 21 19 19 19 18 18 18 20 19 18 19 18 19 15 19 21 20 17 17 17 16 14 14 18 20 21 18 14 13 12 10 7 9 9 8 6 5 4 4 3 3
18 18 18 18 19 20 19 19 20 19 18 19 19 19 20 20 20 22 23 17 16 17 17 16 15 15 18 17 19 20 15 17 17 13 11 8 7 8 6 5 4 3 3
10 11 14 15 18 18 19 19 18 17 19 18 18 19 19 18 18 20 22 21 18 19 19 20 19 18 17 19 18 18 19 14 14 11 12 9 4 3 5 6 5 4 3
15 13 12 13 15 17 19 20 17 16 17 17 17 18 20 20 17 18 16 18 20 21 19 20 20 20 18 21 19 21 19 17 15 17 11 10 7 6 7 5 5 6 5
16 15 13 14 15 17 17 17 15 14 15 13 16 18 19 19 16 18 18 13 18 17 18 19 21 22 19 21 22 18 17 17 15 13 11 6 8 8 9 7 6 6 3
14 12 12 13 15 14 12 13 13 13 13 15 16 15 17 17 17 16 20 17 18 14 15 15 15 20 20 22 28 19 20 13 15 14 11 9 9 9 7 6 7 4 5
8 12 11 11 11 10 11 10 12 12 13 13 13 13 12 14 16 15 20 24 18 16 17 13 14 17 21 20 21 24 14 15 12 13 10 10 10 9 8 9 7 6 4
4 7 8 9 10 9 11 11 9 11 11 11 11 11 10 9 10 17 19 22 25 18 16 16 3 12 23 20 26 22 18 13 12 13 13 12 13 11 11 9 10 6 6
3 5 5 7 8 9 7 10 10 10 10 10 9 9 9 9 9 10 9 12 21 17 19 15 15 12 12 12 15 17 18 16 15 14 14 13 11 9 11 9 8 9 4
2 4 4 5 7 7 7 7 9 10 7 8 9 8 8 6 4 3 2 3 7 13 15 13 13 12 15 10 11 15 17 17 17 15 15 13 11 11 8 11 8 8 7
6 5 6 7 7 7 7 7 8 3 12 15 13 8 5 11 9 9 11 11 8 10 6 11 13 13 14 14 15 14 15 19 16 14 15 13 12 13 12 10 11 10 9
3 3 4 1 4 8 6 6 8 9 14 15 14 13 12 3 11 12 12 11 11 4 8 9 11 13 13 14 15 16 18 17 17 14 14 13 9 6 8 11 12 11 9
4 2 5 5 5 7 6 5 5 5 4 6 10 11 10 10 10 9 11 5 4 2 8 9 11 10 12 14 16 18 17 16 16 16 17 17 18 17 12 13 12 11 8
5 6 4 6 5 4 4 3 5 4 5 3 4 5 10 12 6 5 7 5 5 5 5 4 8 11 12 12 14 15 18 19 20 19 20 17 17 15 16 15 14 15 12
7 8 9 6 4 4 4 4 4 3 3 5 4 5 4 6 5 5 4 3 4 4 5 5 6 8 10 13 13 12 16 20 23 23 21 12 12 14 13 14 12 12 11
7 8 10 8 8 7 7 8 8 8 7 7 8 4 2 4 3 4 5 4 3 4 5 4 4 3 4 5 6 7 6 9 12 10 7 8 12 13 13 13 11 9 8
9 8 7 7 7 8 8 8 8 8 8 9 9 7 14 7 8 8 7 6 6 5 3 5 5 4 3 2 4 2 7 6 8 7 7 7 9 10 10 11 11 9 9
10 11 10 10 9 9 9 9 9 8 9 9 8 7 7 7 8 9 9 9 8 7 5 5 6 4 3 2 2 2 4 5 6 5 5 5 7 7 6 6 7 7 7
10 8 9 9 8 10 10 10 9 12 11 9 8 8 8 8 9 10 10 11 10 9 8 5 4 5 1 2 3 4 4 5 6 5 5 5 5 6 5 5 4 4 5
11 10 9 10 10 10 11 12 10 10 11 11 11 10 9 9 10 10 10 10 10 11 12 10 5 2 3 5 4 8 8 14 11 8 5 6 7 8 6 4 5 4 4
13 9 8 7 8 9 10 10 11 10 11 10 11 10 10 10 11 11 11 12 11 11 15 12 17 15 7 7 8 3 8 8 8 4 5 5 6 7 5 5 6 4 5
Wind_Direction
196 197 200 200 202 207 213 203 218 218 212 219 184 186 189 191 197 202 208 203 201 201 198 192 197 212 235 204 183 204 202 185 236 286 160 153 137 124 151 185 144 164 199
196 199 202 201 203 205 210 213 204 211 212 223 199 192 190 194 199 206 208 217 209 204 204 205 191 201 223 247 232 191 197 207 182 233 122 141 160 183 170 179 212 230 218
196 200 204 208 207 209 205 212 210 206 217 209 212 204 199 200 201 205 210 213 228 219 210 204 208 192 200 220 218 216 188 190 185 172 257 190 187 178 186 193 200 222 261
191 199 206 209 211 210 210 208 211 213 208 217 214 204 206 206 206 207 207 214 216 228 214 206 206 204 200 199 216 216 213 186 188 186 207 237 204 192 178 192 213 208 220
197 196 205 206 206 211 207 210 210 212 218 212 215 217 210 210 210 208 209 210 215 219 225 208 206 202 202 201 202 208 204 207 185 200 206 215 222 203 193 197 173 185 218
195 202 202 200 203 205 210 208 209 212 215 217 215 215 217 215 209 202 206 212 212 217 220 224 214 204 204 199 201 199 198 195 207 198 200 211 215 209 171 183 185 180 201
197 201 203 198 202 203 204 209 211 212 211 218 219 218 220 221 211 201 200 213 213 215 216 216 219 217 204 205 202 201 210 203 206 202 213 206 193 199 171 162 166 153 170
201 203 197 196 199 200 203 209 212 211 214 215 218 221 226 227 214 204 200 214 219 219 218 217 217 220 209 201 200 207 214 212 219 213 217 218 191 172 164 153 158 163 149
207 212 205 196 198 198 205 206 209 213 214 217 220 221 226 231 213 203 192 216 225 226 220 220 218 220 216 196 201 206 212 216 205 213 217 195 189 235 180 144 178 179 200
207 210 207 208 204 207 204 206 208 213 219 218 224 225 228 234 220 202 193 220 231 231 229 230 218 218 208 188 202 207 213 215 207 205 209 172 169 184 202 188 177 200 220
202 204 202 206 212 207 204 201 206 212 219 220 229 228 233 232 234 200 191 219 231 234 236 233 230 212 207 193 200 209 215 196 202 206 204 202 189 177 180 196 201 182 192
180 189 193 205 203 202 201 199 203 210 219 227 227 234 237 236 229 212 195 213 231 237 242 240 236 208 206 201 196 213 174 179 190 195 185 196 198 204 195 173 190 185 177
203 169 183 185 192 209 192 199 204 211 220 221 226 238 240 237 245 216 197 205 222 233 240 242 4 225 198 199 201 197 177 195 196 194 196 198 191 197 188 175 174 182 171
205 160 172 178 188 198 213 194 205 210 215 225 236 232 233 234 238 233 217 211 222 218 236 241 236 234 195 237 202 200 200 205 200 191 196 189 189 189 165 179 170 167 184
186 162 173 194 183 194 209 224 199 213 225 222 217 227 243 259 67 313 335 345 240 228 223 229 229 230 235 223 219 217 210 206 200 194 180 183 177 177 164 148 174 176 185
175 181 187 204 181 202 194 214 234 147 85 85 74 51 42 69 360 353 334 318 301 226 206 234 231 224 221 224 219 219 216 213 204 189 185 179 170 163 151 166 169 188 196
53 34 127 144 354 173 204 187 207 69 96 103 99 85 75 46 19 16 1 338 305 159 235 230 237 233 228 228 220 212 209 211 207 196 186 167 172 180 146 162 180 193 192
117 49 68 59 57 63 56 59 68 69 64 51 61 73 44 35 46 26 7 352 352 334 277 265 258 252 240 229 222 218 212 204 203 191 171 163 166 172 188 181 187 186 189
64 56 90 75 46 60 69 77 70 68 93 73 40 61 32 358 27 53 61 29 337 320 339 307 289 287 292 276 251 235 219 210 201 187 177 172 181 171 171 180 178 174 171
73 36 48 80 91 59 66 51 77 88 66 88 91 63 10 313 5 16 24 351 314 295 297 298 287 280 280 277 268 268 255 233 202 189 156 152 172 162 175 175 165 169 178
82 56 58 64 61 50 49 49 43 36 28 27 60 80 331 322 343 324 318 323 322 326 328 314 304 319 347 64 10 14 59 82 69 57 80 167 162 164 163 166 168 158 156
72 57 74 90 88 83 77 66 56 55 45 38 26 27 358 359 355 349 332 315 324 325 286 290 290 274 287 308 304 115 121 118 120 152 168 167 152 155 157 150 159 162 163
74 72 56 64 72 83 80 76 76 65 50 35 16 17 8 12 6 357 340 349 340 322 321 308 301 293 294 284 257 339 80 100 108 118 127 122 138 140 126 135 152 164 170
88 73 81 69 60 67 68 63 72 69 57 45 33 19 11 12 14 10 4 353 341 332 342 336 318 338 97 40 65 53 65 72 84 92 109 132 128 119 119 137 146 157 164
64 71 69 67 69 69 65 58 54 48 50 52 39 31 18 16 20 14 5 4 2 355 352 344 360 350 64 117 127 136 160 172 161 171 154 130 128 143 156 151 153 180 175
44 54 59 72 86 81 76 71 69 67 62 51 47 36 29 25 23 17 10 11 13 12 8 5 358 347 196 212 225 202 179 173 133 118 127 140 134 154 164 158 175 165 177